contact:dominique.lefevre@mio.osupytheas.fr, maurice.libes@osupytheas.fr
Project:EMSO Ligure-ouest http://www.emso-fr.org/EMSO-France
Sensor Aquadopp, line 13 Serial AQD14315 
DOI : "https://doi.org/10.17882/74513; https://doi.org/10.17882/83244" 
Title:EMSO Ligure Ouest : Data ligne ALBATROSS capteur AQUADOPP - deploiement 2021
Id,Date,Profondeur,Latitude,Longitude,X_East,Y_North,Z_Up,Amplitude_X,Amplitude_Y,Amplitude_Z,Batterie,SoundSpeed,Heading,Pitch,Roll,Pressure,Temperature,Speed,Direction
, , m, degrees North, degrees East, m.s-1, m.s-1,m.s-1, 1, 1, 1, Volt, m.s-1, degree, degree, degree, dbar, degree_C, m.s-1, degree
13,2022-08-13T23:30:00,2400.0,42.79,6.0312,-0.024,-0.013,-0.016,66.0,61.0,61.0,13.0,1504.9,219.3,-0.2,-0.4,2393.105,13.34,0.027,241.6
13,2022-08-14T00:00:00,2400.0,42.79,6.0312,-0.019,-0.008,0.022,65.0,59.0,60.0,13.0,1504.9,219.8,-0.2,-0.4,2393.113,13.34,0.02,247.2
13,2022-08-14T00:30:00,2400.0,42.79,6.0312,0.011,0.013,-0.006,68.0,63.0,61.0,13.0,1504.9,220.2,-0.2,-0.4,2393.094,13.34,0.017,40.2
13,2022-08-14T01:00:00,2400.0,42.79,6.0312,0.022,-0.011,-0.016,65.0,57.0,62.0,13.0,1504.9,220.5,-0.1,-0.3,2393.024,13.34,0.024,116.6
13,2022-08-14T01:30:00,2400.0,42.79,6.0312,-0.023,0.01,-0.003,67.0,60.0,66.0,13.0,1504.9,220.4,-0.2,-0.3,2393.005,13.34,0.025,293.5
13,2022-08-14T02:00:00,2400.0,42.79,6.0312,-0.004,-0.011,-0.034,64.0,59.0,62.0,13.0,1504.9,220.2,-0.2,-0.3,2392.945,13.34,0.011,200.0
13,2022-08-14T02:30:00,2400.0,42.79,6.0312,-0.003,0.001,-0.008,65.0,61.0,60.0,13.0,1504.9,219.6,-0.2,-0.3,2392.972,13.34,0.003,288.4
13,2022-08-14T03:00:00,2400.0,42.79,6.0312,0.006,-0.01,0.0,69.0,60.0,59.0,13.0,1504.9,218.6,-0.2,-0.4,2392.913,13.34,0.011,149.0
13,2022-08-14T03:30:00,2400.0,42.79,6.0312,0.008,-0.019,-0.014,67.0,61.0,63.0,13.0,1504.9,219.1,-0.1,-0.3,2392.909,13.34,0.02,157.2
13,2022-08-14T04:00:00,2400.0,42.79,6.0312,-0.002,-0.001,-0.007,67.0,59.0,65.0,13.0,1504.9,218.4,-0.2,-0.3,2392.928,13.34,0.002,243.4
13,2022-08-14T04:30:00,2400.0,42.79,6.0312,0.022,0.0,0.014,65.0,62.0,60.0,13.0,1504.9,218.6,-0.2,-0.4,2392.963,13.34,0.022,90.0
13,2022-08-14T05:00:00,2400.0,42.79,6.0312,0.002,0.011,-0.003,65.0,60.0,64.0,13.0,1504.9,218.7,-0.2,-0.3,2392.958,13.34,0.011,10.3
13,2022-08-14T05:30:00,2400.0,42.79,6.0312,0.003,-0.016,0.012,66.0,61.0,61.0,13.0,1504.9,218.2,-0.1,-0.3,2392.971,13.34,0.016,169.4
13,2022-08-14T06:00:00,2400.0,42.79,6.0312,0.018,0.012,-0.034,70.0,62.0,63.0,13.0,1504.9,216.9,-0.1,-0.3,2393.007,13.34,0.021,56.3
13,2022-08-14T07:00:00,2400.0,42.79,6.0312,0.005,0.001,0.014,64.0,58.0,60.0,13.0,1504.9,218.3,-0.2,-0.3,2393.056,13.34,0.005,78.7
13,2022-08-14T07:30:00,2400.0,42.79,6.0312,0.016,0.001,-0.015,65.0,60.0,59.0,13.0,1504.9,217.5,-0.1,-0.3,2393.049,13.34,0.016,86.4
13,2022-08-14T08:00:00,2400.0,42.79,6.0312,0.029,-0.02,0.002,64.0,60.0,61.0,13.0,1504.9,218.8,-0.1,-0.4,2393.056,13.34,0.035,124.6
13,2022-08-14T08:30:00,2400.0,42.79,6.0312,0.018,-0.018,-0.016,67.0,60.0,60.0,13.0,1504.9,219.3,-0.2,-0.4,2393.047,13.34,0.025,135.0
13,2022-08-14T09:00:00,2400.0,42.79,6.0312,0.023,-0.019,0.005,67.0,59.0,58.0,13.0,1504.9,220.3,-0.2,-0.3,2393.05,13.34,0.029,129.6
13,2022-08-14T09:30:00,2400.0,42.79,6.0312,0.006,0.0,-0.024,63.0,61.0,63.0,13.0,1504.9,222.0,-0.2,-0.2,2393.096,13.34,0.006,90.0
13,2022-08-14T10:00:00,2400.0,42.79,6.0312,0.011,0.006,0.026,65.0,64.0,64.0,13.0,1504.9,224.5,-0.2,-0.4,2393.046,13.34,0.012,61.4
13,2022-08-14T10:30:00,2400.0,42.79,6.0312,0.011,-0.01,0.044,66.0,60.0,61.0,13.0,1504.9,223.2,-0.1,-0.4,2393.049,13.34,0.014,132.3
13,2022-08-14T11:00:00,2400.0,42.79,6.0312,0.025,-0.015,-0.007,68.0,57.0,61.0,13.0,1504.9,224.1,-0.2,-0.3,2393.002,13.34,0.029,121.0
13,2022-08-14T11:30:00,2400.0,42.79,6.0312,0.009,-0.03,-0.036,66.0,58.0,61.0,13.0,1504.9,224.7,-0.2,-0.4,2393.012,13.34,0.031,163.3
13,2022-08-14T12:00:00,2400.0,42.79,6.0312,0.008,-0.016,0.005,67.0,58.0,60.0,13.0,1504.9,223.6,-0.1,-0.3,2393.042,13.34,0.017,153.4
13,2022-08-14T13:00:00,2400.0,42.79,6.0312,0.005,0.005,-0.023,66.0,61.0,61.0,13.0,1504.9,220.9,-0.1,-0.3,2392.913,13.34,0.007,45.0
13,2022-08-14T13:30:00,2400.0,42.79,6.0312,0.011,0.009,-0.017,65.0,60.0,64.0,13.0,1504.9,220.7,-0.2,-0.3,2392.954,13.34,0.014,50.7
13,2022-08-14T14:00:00,2400.0,42.79,6.0312,0.013,-0.009,-0.006,67.0,61.0,62.0,13.0,1504.9,220.1,-0.2,-0.4,2392.896,13.34,0.015,124.7
13,2022-08-14T14:30:00,2400.0,42.79,6.0312,-0.003,-0.014,-0.015,65.0,60.0,62.0,13.0,1504.9,219.1,-0.2,-0.3,2392.887,13.34,0.014,192.1
13,2022-08-14T15:00:00,2400.0,42.79,6.0312,-0.008,0.0,-0.034,66.0,61.0,62.0,13.0,1504.9,218.6,-0.1,-0.3,2392.809,13.34,0.008,270.0
13,2022-08-14T15:30:00,2400.0,42.79,6.0312,-0.013,-0.006,-0.008,64.0,61.0,61.0,13.0,1504.9,218.1,-0.1,-0.4,2392.886,13.34,0.014,245.2
13,2022-08-14T16:00:00,2400.0,42.79,6.0312,0.009,0.013,-0.009,68.0,62.0,65.0,13.0,1504.9,217.8,-0.1,-0.4,2392.864,13.34,0.015,34.7
13,2022-08-14T16:30:00,2400.0,42.79,6.0312,0.01,-0.002,0.015,69.0,65.0,63.0,13.0,1504.9,217.6,-0.2,-0.4,2392.882,13.34,0.01,101.3
13,2022-08-14T17:00:00,2400.0,42.79,6.0312,0.005,-0.006,-0.037,67.0,63.0,61.0,13.0,1504.9,218.5,-0.2,-0.4,2392.873,13.34,0.007,140.2
13,2022-08-14T17:30:00,2400.0,42.79,6.0312,0.018,0.011,-0.045,66.0,59.0,65.0,13.0,1504.9,217.9,-0.1,-0.3,2392.889,13.34,0.021,58.6
13,2022-08-14T18:00:00,2400.0,42.79,6.0312,0.0,0.006,-0.012,66.0,60.0,67.0,13.0,1504.9,218.6,-0.1,-0.2,2392.937,13.34,0.006,0.0
13,2022-08-14T18:30:00,2400.0,42.79,6.0312,0.02,-0.007,-0.001,67.0,57.0,62.0,13.0,1504.9,218.8,-0.1,-0.3,2393.066,13.34,0.021,109.3
13,2022-08-14T19:00:00,2400.0,42.79,6.0312,0.034,0.012,-0.002,64.0,57.0,59.0,13.0,1504.9,219.2,-0.2,-0.3,2393.101,13.34,0.036,70.6
13,2022-08-14T19:30:00,2400.0,42.79,6.0312,0.012,-0.01,-0.008,65.0,58.0,59.0,13.0,1504.9,219.5,-0.3,-0.4,2393.117,13.34,0.015,129.8
13,2022-08-14T20:00:00,2400.0,42.79,6.0312,0.013,-0.009,-0.017,66.0,58.0,62.0,13.0,1504.9,217.6,-0.2,-0.3,2393.152,13.34,0.015,124.7
13,2022-08-14T20:30:00,2400.0,42.79,6.0312,0.012,0.001,-0.029,69.0,60.0,62.0,13.0,1504.9,219.2,-0.1,-0.3,2393.166,13.34,0.012,85.2
13,2022-08-14T21:00:00,2400.0,42.79,6.0312,0.02,-0.014,-0.026,66.0,58.0,62.0,13.0,1504.9,219.1,-0.2,-0.4,2393.172,13.34,0.024,125.0
13,2022-08-14T21:30:00,2400.0,42.79,6.0312,0.035,-0.025,0.024,65.0,59.0,61.0,13.0,1504.9,219.1,-0.2,-0.3,2393.202,13.34,0.043,125.5
13,2022-08-14T22:00:00,2400.0,42.79,6.0312,0.011,-0.009,-0.029,66.0,61.0,61.0,13.0,1504.9,220.3,-0.2,-0.3,2393.167,13.34,0.014,129.3
13,2022-08-14T22:30:00,2400.0,42.79,6.0312,0.031,-0.008,-0.016,66.0,60.0,64.0,13.0,1504.9,220.6,-0.2,-0.3,2393.153,13.34,0.032,104.5
13,2022-08-14T23:00:00,2400.0,42.79,6.0312,0.006,-0.012,-0.014,64.0,61.0,62.0,13.0,1504.9,221.7,-0.1,-0.3,2393.153,13.34,0.013,153.4
